User: anonymous   Login
Location: Overspoor
(51.4747°N, 5.6641°E)
Time: 09:04:33
(UTC+02:00)
Language:

XW-2B - Orbit

View from above orbital plane
View from above orbital plane
View from above satellite
View from above satellite

Ground track
Ground track

The orbit data is extracted from the following two-line orbital elements,

1 40911U 15049N   22175.82033346  .00005916  00000-0  27972-3 0  9991
2 40911  97.4901 179.7599 0012296 338.8121  99.3580 15.19705666373979
Epoch (UTC): 24 June 2022 19:41:16
Eccentricity: 0.0012296
inclination: 97.4901°
perigee height: 498 km
apogee height: 515 km
right ascension of ascending node: 179.7599°
argument of perigee: 338.8121°
revolutions per day: 15.19705666
mean anomaly at epoch: 99.3580°
orbit number at epoch: 37397

The dashed part of the orbit path shows where the satellite is in the earth's shadow,  

DLR